OE5WWO Weather Reports


Display with metric or nautical units.
time (UTC)temp
F
wind
direction
speed
MPH
gust
MPH
rain 1hr
in
rain 24hr
in
rain mn
in
humidity
%
barometer
mb
20260507121041 65 288 3.0 10.0 0.00 0.00 0.00 54 1013.0
20260507120539 65 231 2.0 11.0 0.00 0.00 0.00 54 1013.1
20260507120054 65 291 2.0 11.0 0.00 0.00 0.00 53 1013.0
20260507115540 64 195 2.0 11.0 0.00 0.00 0.00 55 1013.1
20260507115043 64 273 3.0 13.0 0.00 0.00 0.00 55 1013.2
20260507114605 64 240 5.0 13.0 0.00 0.00 0.00 54 1013.3
20260507114040 64 260 2.0 10.0 0.00 0.00 0.00 55 1013.3
20260507113540 64 232 2.0 10.0 0.00 0.00 0.00 56 1013.3
20260507113105 65 284 4.0 10.0 0.00 0.00 0.00 54 1013.4
20260507112541 64 119 3.0 11.0 0.00 0.00 0.00 56 1013.4
20260507112042 64 288 2.0 11.0 0.00 0.00 0.00 56 1013.3
20260507111553 64 257 2.0 8.0 0.00 0.00 0.00 54 1013.5
20260507111042 64 5 1.0 10.0 0.00 0.00 0.00 55 1013.4
20260507110540 65 250 2.0 10.0 0.00 0.00 0.00 54 1013.3
20260507110049 65 214 3.0 13.0 0.00 0.00 0.00 53 1013.4
20260507105540 65 252 4.0 13.0 0.00 0.00 0.00 54 1013.5
20260507105040 65 180 4.0 13.0 0.00 0.00 0.00 53 1013.4
20260507104548 66 254 3.0 12.0 0.00 0.00 0.00 54 1013.4
20260507104042 66 209 4.0 12.0 0.00 0.00 0.00 53 1013.5
20260507103540 65 154 2.0 10.0 0.00 0.00 0.00 54 1013.5
20260507103051 65 192 4.0 15.0 0.00 0.00 0.00 54 1013.5
20260507102543 64 275 3.0 15.0 0.00 0.00 0.00 57 1013.5
20260507102040 64 259 4.0 10.0 0.00 0.00 0.00 55 1013.7
20260507101548 63 246 3.0 10.0 0.00 0.00 0.00 57 1013.7
20260507101039 63 221 3.0 10.0 0.00 0.00 0.00 59 1013.7
20260507100540 63 284 2.0 12.0 0.00 0.00 0.00 57 1013.7
20260507100056 63 323 3.0 15.0 0.00 0.00 0.00 57 1013.7
20260507095541 63 289 4.0 15.0 0.00 0.00 0.00 56 1013.7
20260507095036 63 179 4.0 13.0 0.00 0.00 0.00 55 1013.6
20260507094549 63 207 4.0 16.0 0.00 0.00 0.00 57 1013.6
20260507094042 63 234 5.0 16.0 0.00 0.00 0.00 57 1013.7
20260507093539 63 198 4.0 15.0 0.00 0.00 0.00 58 1013.6
20260507093052 62 265 6.0 15.0 0.00 0.00 0.00 57 1013.7
20260507092541 62 208 4.0 9.0 0.00 0.00 0.00 59 1013.6
20260507092042 62 304 3.0 14.0 0.00 0.00 0.00 59 1013.6
20260507091549 62 202 4.0 14.0 0.00 0.00 0.00 60 1013.5
20260507091040 61 259 4.0 14.0 0.00 0.00 0.00 60 1013.6
20260507090541 61 274 4.0 14.0 0.00 0.00 0.00 59 1013.5
20260507090050 61 217 3.0 11.0 0.00 0.00 0.00 61 1013.5
20260507085540 61 277 3.0 14.0 0.00 0.00 0.00 61 1013.5
20260507085039 61 290 3.0 14.0 0.00 0.00 0.00 61 1013.4
20260507084600 62 343 4.0 11.0 0.00 0.00 0.00 60 1013.4
20260507084039 61 286 2.0 12.0 0.00 0.00 0.00 62 1013.3
20260507083542 61 328 3.0 12.0 0.00 0.00 0.00 62 1013.3
20260507083053 61 284 4.0 16.0 0.00 0.00 0.00 62 1013.3
20260507082539 61 198 4.0 16.0 0.00 0.00 0.00 60 1013.3
20260507082039 61 321 3.0 10.0 0.00 0.00 0.00 63 1013.2
20260507081558 61 213 2.0 12.0 0.00 0.00 0.00 64 1013.1
20260507081039 61 213 3.0 12.0 0.00 0.00 0.00 62 1013.1
20260507080540 61 246 2.0 11.0 0.00 0.00 0.00 64 1013.1
20260507080052 60 279 2.0 10.0 0.00 0.00 0.00 65 1013.1
20260507075540 60 344 2.0 10.0 0.00 0.00 0.00 66 1013.0
20260507075042 59 313 2.0 12.0 0.00 0.00 0.00 64 1013.0
20260507074556 59 350 3.0 12.0 0.00 0.00 0.00 65 1013.0
20260507074043 60 188 4.0 12.0 0.00 0.00 0.00 64 1013.1
20260507073540 60 5 3.0 8.0 0.00 0.00 0.00 65 1012.9
20260507073054 60 0 2.0 7.0 0.00 0.00 0.00 66 1012.9
20260507072540 59 243 3.0 6.0 0.00 0.00 0.00 66 1012.9
20260507072042 59 238 2.0 9.0 0.00 0.00 0.00 66 1013.0
20260507071550 59 199 3.0 10.0 0.00 0.00 0.00 66 1013.0
20260507071040 59 0 1.0 10.0 0.00 0.00 0.00 68 1013.0
20260507070540 59 173 2.0 10.0 0.00 0.00 0.00 68 1013.0
20260507070051 58 317 3.0 9.0 0.00 0.00 0.00 69 1012.9
20260507065540 58 274 2.0 8.0 0.00 0.00 0.00 70 1013.0
20260507065039 58 273 2.0 8.0 0.00 0.00 0.00 69 1012.9
20260507064555 59 290 2.0 7.0 0.00 0.00 0.00 69 1012.9
20260507064043 59 223 2.0 7.0 0.00 0.00 0.00 69 1013.0
20260507063540 58 323 2.0 7.0 0.00 0.00 0.00 69 1013.0
20260507063056 58 198 2.0 6.0 0.00 0.00 0.00 69 1013.1
20260507062540 58 293 1.0 6.0 0.00 0.00 0.00 71 1013.1
20260507062040 58 277 1.0 7.0 0.00 0.00 0.00 69 1013.0
20260507061552 57 291 1.0 7.0 0.00 0.00 0.00 72 1013.0
20260507061040 56 226 1.0 3.0 0.00 0.00 0.00 74 1013.0
20260507060538 56 283 1.0 4.0 0.00 0.00 0.00 73 1013.0
20260507060059 56 317 1.0 4.0 0.00 0.00 0.00 75 1013.0
20260507055540 55 279 1.0 4.0 0.00 0.00 0.00 76 1012.9
20260507055039 55 325 1.0 4.0 0.00 0.00 0.00 77 1012.9
20260507054554 54 315 1.0 3.0 0.00 0.00 0.00 77 1012.9
20260507054042 54 274 0.0 3.0 0.00 0.00 0.00 77 1012.9
20260507053542 54 0 0.0 3.0 0.00 0.00 0.00 78 1012.9
20260507053052 54 300 0.0 3.0 0.00 0.00 0.00 78 1012.8
20260507052544 54 311 0.0 4.0 0.00 0.00 0.00 80 1012.8
20260507052040 53 322 0.0 5.0 0.00 0.00 0.00 80 1012.7
20260507051553 53 324 0.0 5.0 0.00 0.00 0.00 80 1012.5
20260507051041 53 0 1.0 3.0 0.00 0.00 0.00 80 1012.5
20260507050540 53 0 0.0 2.0 0.00 0.00 0.00 81 1012.5
20260507050053 53 286 0.0 2.0 0.00 0.00 0.00 81 1012.4
20260507045542 52 0 0.0 2.0 0.00 0.00 0.00 81 1012.4
20260507045039 52 0 0.0 2.0 0.00 0.00 0.00 81 1012.3
20260507044605 52 273 0.0 2.0 0.00 0.00 0.00 81 1012.2
20260507044040 52 0 0.0 2.0 0.00 0.00 0.00 81 1012.2
20260507043540 52 313 0.0 2.0 0.00 0.00 0.00 81 1012.1
20260507043102 52 309 0.0 2.0 0.00 0.00 0.00 81 1012.1
20260507042541 52 0 0.0 2.0 0.00 0.00 0.00 81 1012.1
20260507042044 52 0 0.0 2.0 0.00 0.00 0.00 81 1012.0
20260507041557 52 0 0.0 3.0 0.00 0.00 0.00 81 1011.9
20260507041041 52 0 0.0 3.0 0.00 0.00 0.00 81 1011.8
20260507040540 52 304 0.0 3.0 0.00 0.00 0.00 80 1011.8
20260507040054 52 0 0.0 1.0 0.00 0.00 0.00 80 1011.8
20260507035539 52 0 0.0 1.0 0.00 0.00 0.00 80 1011.8
20260507035039 52 0 0.0 1.0 0.00 0.00 0.00 79 1011.7
20260507034554 52 0 0.0 2.0 0.00 0.00 0.00 79 1011.6
20260507034040 52 0 0.0 2.0 0.00 0.00 0.00 79 1011.5
20260507033540 52 0 0.0 2.0 0.00 0.00 0.00 79 1011.6
20260507033052 53 0 0.0 2.0 0.00 0.00 0.00 79 1011.5
20260507032540 53 0 0.0 2.0 0.00 0.00 0.00 79 1011.5
20260507032039 53 0 0.0 2.0 0.00 0.00 0.00 79 1011.5
20260507031554 53 0 0.0 3.0 0.00 0.00 0.00 79 1011.5
20260507031039 53 0 0.0 3.0 0.00 0.00 0.00 79 1011.4
20260507030539 53 269 0.0 3.0 0.00 0.00 0.00 79 1011.3
20260507030049 53 302 0.0 3.0 0.00 0.00 0.00 79 1011.3
20260507025540 53 211 0.0 4.0 0.00 0.00 0.00 79 1011.2
20260507025040 53 0 0.0 4.0 0.00 0.00 0.00 80 1011.2
20260507024553 53 318 0.0 3.0 0.00 0.00 0.00 80 1011.2
20260507024040 53 242 0.0 3.0 0.00 0.00 0.00 80 1011.2
20260507023540 53 0 0.0 6.0 0.00 0.00 0.00 80 1011.2
20260507023103 53 215 0.0 6.0 0.00 0.00 0.00 80 1011.2
20260507022540 53 0 0.0 6.0 0.00 0.00 0.00 80 1011.1
20260507022040 53 0 2.0 6.0 0.00 0.00 0.00 80 1011.1
20260507021550 53 0 0.0 6.0 0.00 0.00 0.00 80 1011.1
20260507021040 53 0 0.0 6.0 0.00 0.00 0.00 80 1011.2
20260507020540 53 0 0.0 4.0 0.00 0.00 0.00 80 1011.2
20260507020059 53 0 0.0 2.0 0.00 0.00 0.00 80 1011.1
20260507015539 53 263 0.0 5.0 0.00 0.00 0.00 80 1011.1
20260507015040 53 0 0.0 5.0 0.00 0.00 0.00 80 1011.1
20260507014546 54 0 0.0 5.0 0.00 0.00 0.00 80 1011.1
20260507014040 54 0 0.0 3.0 0.00 0.00 0.00 80 1011.0
20260507013541 54 0 0.0 3.0 0.00 0.00 0.00 79 1011.0
20260507013047 54 312 0.0 3.0 0.00 0.00 0.00 80 1011.0
20260507012546 54 0 0.0 0.0 0.00 0.00 0.00 80 1011.0
20260507012040 54 0 0.0 1.0 0.00 0.00 0.00 80 1011.0
20260507011548 54 0 0.0 2.0 0.00 0.00 0.00 80 1011.0
20260507011039 54 0 0.0 6.0 0.00 0.00 0.00 80 1011.0
20260507010540 54 0 0.0 6.0 0.00 0.00 0.00 80 1011.0
20260507010051 54 144 2.0 6.0 0.00 0.00 0.00 80 1010.9
20260507005540 54 0 1.0 4.0 0.00 0.00 0.00 80 1010.9
20260507005041 54 257 0.0 4.0 0.00 0.00 0.00 80 1010.9
20260507004551 54 0 0.0 6.0 0.00 0.00 0.00 80 1010.9
20260507004039 54 251 1.0 6.0 0.00 0.00 0.00 80 1010.8
20260507003541 54 254 1.0 5.0 0.00 0.00 0.00 80 1010.7
20260507003106 54 213 1.0 5.0 0.00 0.00 0.00 80 1010.7
20260507002545 54 233 1.0 5.0 0.00 0.00 0.00 79 1010.7
20260507002042 54 307 1.0 5.0 0.00 0.00 0.00 79 1010.7
20260507001609 55 0 0.0 5.0 0.00 0.00 0.00 79 1010.6
20260507001041 55 293 1.0 7.0 0.00 0.00 0.00 79 1010.7
20260507000543 55 291 1.0 7.0 0.00 0.00 0.00 80 1010.8
20260507000047 55 232 1.0 8.0 0.00 0.00 0.00 80 1010.8
20260506235540 55 0 2.0 8.0 0.00 0.00 0.00 79 1010.8
20260506235039 55 0 0.0 4.0 0.00 0.00 0.00 79 1010.8
20260506234551 55 286 1.0 6.0 0.00 0.00 0.00 79 1010.8
20260506234040 55 331 2.0 6.0 0.00 0.00 0.00 79 1010.8
20260506233540 55 0 0.0 3.0 0.00 0.00 0.00 79 1010.7
20260506233052 55 240 0.0 6.0 0.00 0.00 0.00 79 1010.7
20260506232539 55 202 0.0 6.0 0.00 0.00 0.00 79 1010.7
20260506232040 55 157 1.0 6.0 0.00 0.00 0.00 79 1010.7
20260506231554 55 0 1.0 6.0 0.00 0.00 0.00 79 1010.6
20260506231040 55 280 1.0 5.0 0.00 0.00 0.00 79 1010.7
20260506230540 55 269 0.0 10.0 0.00 0.00 0.00 79 1010.7
20260506230107 55 219 0.0 10.0 0.00 0.00 0.00 79 1010.6
20260506225557 55 264 2.0 13.0 0.00 0.00 0.00 79 1010.6
20260506225040 55 221 2.0 13.0 0.00 0.00 0.00 78 1010.3
20260506224548 56 288 3.0 10.0 0.00 0.00 0.00 78 1010.2
20260506224039 56 207 3.0 9.0 0.00 0.00 0.00 78 1010.1
20260506223541 56 188 2.0 9.0 0.00 0.00 0.00 79 1009.8
20260506223049 56 277 2.0 9.0 0.00 0.00 0.00 79 1009.8
20260506222540 56 198 3.0 10.0 0.00 0.00 0.00 79 1009.9
20260506222040 56 210 2.0 10.0 0.00 0.00 0.00 79 1009.7
20260506221603 56 235 1.0 9.0 0.00 0.00 0.00 80 1009.7
20260506221039 56 203 1.0 9.0 0.00 0.00 0.00 81 1009.6
20260506220539 56 201 2.0 8.0 0.00 0.00 0.00 81 1009.5
20260506220055 57 0 0.0 7.0 0.00 0.00 0.00 81 1009.4
20260506215542 57 351 1.0 8.0 0.00 0.00 0.00 80 1009.3
20260506215040 57 279 1.0 9.0 0.00 0.00 0.00 80 1009.3
20260506214555 57 250 2.0 9.0 0.00 0.00 0.00 81 1009.2
20260506214040 57 145 1.0 7.0 0.00 0.00 0.00 81 1009.2
20260506213540 57 0 1.0 9.0 0.00 0.00 0.00 81 1009.2
20260506213050 57 259 2.0 9.0 0.00 0.00 0.00 81 1009.2
20260506212540 57 269 1.0 8.0 0.00 0.00 0.00 81 1009.2
20260506212040 57 202 1.0 9.0 0.00 0.00 0.00 82 1009.1
20260506211548 57 271 3.0 9.0 0.00 0.00 0.00 82 1009.0
20260506211039 58 188 1.0 8.0 0.00 0.00 0.00 83 1009.0
20260506210540 58 0 2.0 9.0 0.00 0.00 0.00 83 1008.8
20260506210058 58 271 3.0 12.0 0.00 0.00 0.00 84 1008.8
20260506205541 58 299 2.0 12.0 0.00 0.00 0.00 84 1008.7
20260506205039 58 295 3.0 12.0 0.00 0.00 0.00 84 1008.6
20260506204547 58 280 1.0 9.0 0.00 0.00 0.00 85 1008.3
20260506204038 58 261 2.0 9.0 0.00 0.00 0.00 85 1008.3
20260506203540 58 0 1.0 9.0 0.00 0.00 0.00 86 1008.3
20260506203102 58 279 1.0 9.0 0.00 0.00 0.00 86 1008.2
20260506202541 58 277 2.0 9.0 0.00 0.00 0.00 86 1008.0
20260506202040 58 194 3.0 8.0 0.00 0.00 0.00 86 1008.0
20260506201549 58 160 1.0 9.0 0.00 0.00 0.00 85 1007.9
20260506201040 58 244 2.0 9.0 0.00 0.00 0.00 85 1007.7
20260506200539 59 0 2.0 9.0 0.00 0.00 0.00 84 1007.6
20260506200056 59 263 2.0 6.0 0.00 0.00 0.00 83 1007.6
20260506195537 59 221 1.0 9.0 0.00 0.03 0.00 82 1007.4
20260506195037 59 297 2.0 11.0 0.00 0.03 0.00 80 1007.1
20260506194554 60 0 2.0 12.0 0.00 0.03 0.00 78 1007.0
20260506194038 61 225 2.0 12.0 0.00 0.03 0.00 75 1006.9
20260506193543 61 212 3.0 9.0 0.00 0.03 0.00 73 1006.8
20260506193105 62 266 1.0 10.0 0.00 0.03 0.00 69 1006.7
20260506192540 62 281 2.0 10.0 0.00 0.03 0.00 67 1006.4
20260506192040 63 325 3.0 10.0 0.00 0.03 0.00 64 1006.3
20260506191552 63 210 2.0 6.0 0.00 0.03 0.00 62 1005.9
20260506191037 63 263 1.0 10.0 0.00 0.03 0.00 61 1005.4
20260506190538 63 245 2.0 15.0 0.00 0.03 0.00 60 1005.3
20260506190054 63 360 3.0 15.0 0.00 0.03 0.00 60 1004.7
20260506185537 63 322 3.0 14.0 0.00 0.12 0.00 61 1004.5
20260506185040 63 327 4.0 14.0 0.00 0.12 0.00 62 1004.6
20260506184557 64 330 4.0 14.0 0.00 0.12 0.00 63 1004.7
20260506184038 64 304 2.0 17.0 0.00 0.12 0.00 63 1004.6
20260506183544 64 242 3.0 17.0 0.00 0.12 0.00 63 1004.4
20260506183103 65 302 2.0 10.0 0.00 0.12 0.00 62 1004.3
20260506182541 66 352 3.0 12.0 0.00 0.12 0.00 61 1004.0
20260506182042 67 328 3.0 12.0 0.00 0.12 0.00 57 1003.8
20260506181555 68 250 3.0 14.0 0.00 0.12 0.00 53 1003.7
20260506181040 70 304 4.0 14.0 0.00 0.12 0.00 50 1003.5
20260506180543 72 350 4.0 14.0 0.00 0.12 0.00 45 1003.5
20260506180053 73 0 0.0 5.0 0.00 0.12 0.00 42 1002.8
20260506175540 73 0 1.0 5.0 0.00 0.12 0.00 41 1002.6
20260506175040 73 160 2.0 5.0 0.00 0.12 0.00 41 1002.5
20260506174552 73 192 0.0 5.0 0.00 0.12 0.00 42 1002.2
20260506174040 73 160 1.0 5.0 0.00 0.12 0.00 42 1002.1
20260506173540 73 101 1.0 5.0 0.00 0.12 0.00 41 1002.1
20260506173106 73 0 0.0 3.0 0.00 0.12 0.00 41 1002.0
20260506172538 73 0 0.0 3.0 0.00 0.12 0.00 41 1001.7
20260506172041 74 0 1.0 3.0 0.00 0.12 0.00 40 1001.4
20260506171551 74 182 0.0 4.0 0.00 0.12 0.00 40 1001.3
20260506171040 74 174 0.0 4.0 0.00 0.12 0.00 39 1001.2
20260506170540 75 42 1.0 5.0 0.00 0.12 0.00 40 1001.1
20260506170104 75 138 2.0 6.0 0.00 0.12 0.00 39 1001.0
20260506165543 75 0 1.0 6.0 0.00 0.12 0.00 39 1001.1
20260506165040 76 101 1.0 7.0 0.00 0.12 0.00 39 1001.2
20260506164603 76 205 3.0 7.0 0.00 0.12 0.00 38 1001.3
20260506164039 76 111 2.0 6.0 0.00 0.12 0.00 38 1001.4
20260506163540 76 5 1.0 6.0 0.00 0.12 0.00 38 1001.6
20260506163056 76 0 1.0 6.0 0.00 0.12 0.00 39 1001.6
20260506162543 76 165 0.0 6.0 0.00 0.12 0.00 40 1001.6
20260506162041 76 126 1.0 6.0 0.00 0.12 0.00 39 1001.7
20260506161554 76 151 0.0 4.0 0.00 0.12 0.00 40 1001.7
20260506161038 76 0 1.0 4.0 0.00 0.12 0.00 39 1001.8
20260506160537 76 180 0.0 7.0 0.00 0.12 0.00 40 1001.8
20260506160111 76 169 1.0 9.0 0.00 0.12 0.00 39 1001.9
20260506155540 76 119 2.0 9.0 0.00 0.12 0.00 39 1001.9
20260506155037 76 52 1.0 8.0 0.00 0.12 0.00 42 1002.1
20260506154556 76 326 1.0 8.0 0.00 0.12 0.00 43 1002.2
20260506154040 76 96 2.0 8.0 0.00 0.12 0.00 43 1002.2
20260506153544 76 70 2.0 5.0 0.00 0.12 0.00 43 1002.2
20260506153054 76 100 2.0 5.0 0.00 0.12 0.00 44 1002.3
20260506152540 76 212 1.0 5.0 0.00 0.12 0.00 44 1002.4
20260506152043 76 73 1.0 6.0 0.00 0.12 0.00 45 1002.4
20260506151556 75 0 1.0 7.0 0.00 0.12 0.00 46 1002.5
20260506151036 76 69 1.0 7.0 0.00 0.12 0.00 44 1002.5
20260506150539 76 315 0.0 4.0 0.00 0.12 0.00 46 1002.6
20260506145538 75 76 1.0 6.0 0.00 0.12 0.00 43 1002.6
20260506145040 76 73 1.0 5.0 0.00 0.12 0.00 43 1002.7
20260506144552 75 98 0.0 4.0 0.00 0.12 0.00 44 1002.8
20260506144037 75 0 1.0 4.0 0.00 0.12 0.00 43 1002.9
20260506143537 75 80 1.0 5.0 0.00 0.12 0.00 44 1002.9
20260506143053 75 85 1.0 5.0 0.00 0.12 0.00 42 1003.0
20260506142540 75 72 2.0 5.0 0.00 0.12 0.00 43 1003.0
20260506142039 75 86 2.0 5.0 0.00 0.12 0.00 43 1003.2
20260506141550 75 328 1.0 4.0 0.00 0.12 0.00 43 1003.1
20260506141040 75 27 0.0 4.0 0.00 0.12 0.00 43 1003.2
20260506140540 75 71 0.0 3.0 0.00 0.12 0.00 43 1003.2
20260506140055 75 71 0.0 7.0 0.00 0.12 0.00 42 1003.3
20260506135540 75 74 1.0 9.0 0.00 0.12 0.00 43 1003.5
20260506135039 76 42 4.0 11.0 0.00 0.12 0.00 40 1003.5
20260506134556 76 70 5.0 11.0 0.00 0.12 0.00 39 1003.5
20260506134042 77 68 2.0 7.0 0.00 0.12 0.00 40 1003.5
20260506133540 77 71 2.0 9.0 0.00 0.12 0.00 39 1003.5
20260506133107 77 200 1.0 10.0 0.00 0.12 0.00 41 1003.7
20260506132540 77 69 4.0 10.0 0.00 0.12 0.00 39 1003.8
20260506132043 77 89 3.0 8.0 0.00 0.12 0.00 39 1003.8
20260506131614 77 85 2.0 6.0 0.00 0.12 0.00 40 1003.9
20260506131042 77 0 2.0 6.0 0.00 0.12 0.00 42 1004.0
20260506130540 76 81 1.0 6.0 0.00 0.12 0.00 41 1004.0
20260506130054 76 84 1.0 5.0 0.00 0.12 0.00 41 1004.2
20260506125539 76 98 1.0 9.0 0.00 0.12 0.00 41 1004.2
20260506125039 76 74 2.0 9.0 0.00 0.12 0.00 42 1004.3
20260506124553 76 98 2.0 7.0 0.00 0.12 0.00 43 1004.3
20260506124039 75 138 2.0 7.0 0.00 0.12 0.00 43 1004.4
20260506123542 75 267 0.0 9.0 0.00 0.12 0.00 46 1004.4
20260506123054 75 88 2.0 9.0 0.00 0.12 0.00 44 1004.6
20260506122540 75 63 2.0 9.0 0.00 0.12 0.00 44 1004.6
20260506122041 75 98 2.0 9.0 0.00 0.12 0.00 44 1004.8
20260506121557 75 74 3.0 8.0 0.00 0.12 0.00 44 1004.8